DLH599 EDDF-HKJK

Flight info

Callsign DLH599
Flight time N/A
Altitude 37000
Route CINDY8S/18 CINDY Z74 LAMPU DCT NOMBO Y161 MAH DCT VAVOR DCT RADIZ/N0487F390 DCT NEMEK DCT VRANA DCT PETAK DCT DIMIS UL604 SALUN N705 BOPIX N710 KIVIL L613 SML A727 NUBAR P309 AVONO/N0487F400 A727 ANTAX/N0488F390 UA727 KAMAS KAMAS2D
Aircraft A359/H-SDE2E3GHIJ3J4J5LM1ORWXY/LB1D1

Departure

Time N/A
Airport Frankfurt Main Airport (EDDF)

Arrival

Time 2026-04-30 21:43
Airport Jomo Kenyatta International Airport (HKJK)
Time Latitude Longitude Altitude Speed Heading
2026-04-30 14:53 50.04777 8.56495 370 ft 0 kts 340°
2026-04-30 15:07 50.04754 8.56509 367 ft 4 kts 338°
2026-04-30 15:08 50.04704 8.56536 366 ft 4 kts 354°
2026-04-30 15:08 50.04634 8.56500 367 ft 4 kts 24°
2026-04-30 15:09 50.04664 8.56498 368 ft 4 kts 333°
2026-04-30 15:09 50.04675 8.56431 367 ft 4 kts 246°
2026-04-30 15:10 50.04658 8.56403 362 ft 2 kts 249°
2026-04-30 15:11 50.04658 8.56401 362 ft 0 kts 250°
2026-04-30 15:14 50.04621 8.56246 370 ft 16 kts 249°
2026-04-30 15:16 50.04287 8.55957 362 ft 10 kts 178°
2026-04-30 15:17 50.03971 8.55624 363 ft 17 kts 248°
2026-04-30 15:18 50.03744 8.54682 359 ft 25 kts 249°
2026-04-30 15:19 50.03584 8.54011 356 ft 23 kts 249°
2026-04-30 17:39 29.41134 28.94379 38998 ft 537 kts 148°
2026-04-30 17:42 29.11313 29.20010 38991 ft 528 kts 159°
2026-04-30 17:42 29.01232 29.24561 39001 ft 517 kts 168°
2026-04-30 17:43 28.94413 29.27192 39004 ft 517 kts 169°
2026-04-30 17:44 28.73904 29.35144 39007 ft 519 kts 168°
2026-04-30 17:47 28.43137 29.47108 39011 ft 520 kts 168°
2026-04-30 17:48 28.19099 29.56400 39027 ft 522 kts 168°
2026-04-30 17:50 27.91592 29.66981 39025 ft 523 kts 168°
2026-04-30 17:52 27.70906 29.74900 39028 ft 524 kts 168°
2026-04-30 17:54 27.39897 29.86717 39032 ft 519 kts 168°
2026-04-30 17:56 27.12605 29.97052 39034 ft 518 kts 168°
2026-04-30 17:58 26.92088 30.04788 39011 ft 519 kts 168°
2026-04-30 17:59 26.78584 30.09873 39035 ft 507 kts 169°
2026-04-30 18:00 26.65208 30.14854 39030 ft 506 kts 169°
2026-04-30 18:01 26.48585 30.20935 39033 ft 503 kts 169°
2026-04-30 18:02 26.28668 30.28277 39027 ft 500 kts 170°
2026-04-30 18:04 26.08973 30.35558 39021 ft 498 kts 170°
2026-04-30 18:06 25.82774 30.45199 38997 ft 494 kts 170°
2026-04-30 18:08 25.59953 30.53558 38959 ft 493 kts 171°
2026-04-30 18:10 25.34973 30.62501 38956 ft 492 kts 172°
2026-04-30 18:11 25.10930 30.70637 38963 ft 493 kts 172°
2026-04-30 18:13 24.94531 30.76206 38964 ft 493 kts 172°
2026-04-30 18:14 24.78148 30.81750 38963 ft 495 kts 172°
2026-04-30 18:15 24.58380 30.88424 38939 ft 495 kts 172°
2026-04-30 18:16 24.45166 30.92871 38960 ft 496 kts 172°
2026-04-30 18:17 24.38554 30.95093 38963 ft 496 kts 172°
2026-04-30 18:18 24.28684 30.98406 38966 ft 496 kts 172°
2026-04-30 18:18 24.22083 31.00619 38963 ft 496 kts 172°
2026-04-30 18:19 24.15476 31.02830 38960 ft 496 kts 172°
2026-04-30 18:19 24.08871 31.05039 38959 ft 496 kts 172°
2026-04-30 18:20 24.02263 31.07246 38961 ft 496 kts 172°
2026-04-30 18:20 23.95661 31.09449 38960 ft 497 kts 172°
2026-04-30 18:21 23.89044 31.11654 38965 ft 497 kts 172°
2026-04-30 18:21 23.82430 31.13856 38963 ft 497 kts 172°
2026-04-30 18:22 23.76929 31.15687 38955 ft 497 kts 172°
2026-04-30 18:22 23.67004 31.18983 38953 ft 498 kts 172°
2026-04-30 18:23 23.60372 31.21183 38956 ft 498 kts 172°
2026-04-30 18:23 23.53738 31.23383 38951 ft 498 kts 172°
2026-04-30 18:24 23.43831 31.26663 38951 ft 498 kts 172°
2026-04-30 18:25 23.37197 31.28855 38955 ft 499 kts 172°
2026-04-30 18:25 23.27213 31.32150 38944 ft 500 kts 172°
2026-04-30 18:26 23.17222 31.35445 38940 ft 499 kts 172°
2026-04-30 18:27 23.07283 31.38715 38942 ft 501 kts 172°
2026-04-30 18:28 22.97262 31.42006 38941 ft 502 kts 172°
2026-04-30 18:28 22.87224 31.45301 38938 ft 502 kts 172°
2026-04-30 18:29 22.73844 31.49682 38941 ft 503 kts 172°
2026-04-30 18:30 22.60435 31.54065 38936 ft 503 kts 172°
2026-04-30 18:31 22.50417 31.57334 38917 ft 503 kts 172°
2026-04-30 18:32 22.40336 31.60618 38943 ft 504 kts 172°
2026-04-30 18:32 22.33572 31.62166 38942 ft 488 kts 185°
2026-04-30 18:33 22.30197 31.62416 38937 ft 486 kts 186°
2026-04-30 18:33 22.20073 31.62810 38932 ft 485 kts 187°
2026-04-30 18:34 22.09990 31.63136 38939 ft 485 kts 186°
2026-04-30 18:35 22.03237 31.63379 38940 ft 486 kts 186°
2026-04-30 18:35 21.96454 31.64310 38944 ft 497 kts 178°
2026-04-30 18:36 21.86261 31.66588 38947 ft 500 kts 175°
2026-04-30 18:37 21.76054 31.68956 38939 ft 500 kts 176°
2026-04-30 18:37 21.69252 31.70512 38943 ft 500 kts 176°
2026-04-30 18:38 21.62443 31.72059 38947 ft 499 kts 175°
2026-04-30 18:38 21.55685 31.73593 38958 ft 500 kts 175°
2026-04-30 18:39 21.48872 31.75139 38959 ft 500 kts 175°
2026-04-30 18:39 21.42069 31.76682 38960 ft 500 kts 175°
2026-04-30 18:40 21.35257 31.78225 38950 ft 500 kts 175°
2026-04-30 18:40 21.28449 31.79766 38960 ft 500 kts 175°
2026-04-30 18:41 21.21686 31.81295 38961 ft 499 kts 175°
2026-04-30 18:41 21.14893 31.82831 38963 ft 498 kts 175°
2026-04-30 18:42 21.08098 31.84364 38961 ft 498 kts 175°
2026-04-30 18:42 20.97923 31.86658 38968 ft 497 kts 175°
2026-04-30 18:45 20.60805 31.94999 38962 ft 493 kts 174°
2026-04-30 18:46 20.54088 31.96503 38955 ft 493 kts 174°
2026-04-30 18:46 20.47357 31.98009 38958 ft 493 kts 174°
2026-04-30 18:47 20.40643 31.99510 38951 ft 492 kts 174°
2026-04-30 18:47 20.33950 32.01007 38950 ft 490 kts 174°
2026-04-30 18:48 20.27269 32.02499 38952 ft 490 kts 174°
2026-04-30 18:48 20.20630 32.03979 38947 ft 490 kts 174°
2026-04-30 18:49 20.13949 32.05467 38939 ft 490 kts 174°
2026-04-30 18:49 20.07271 32.06954 38952 ft 489 kts 174°
2026-04-30 18:50 20.00618 32.08434 38949 ft 488 kts 174°
2026-04-30 18:50 19.93969 32.09912 38948 ft 488 kts 173°
2026-04-30 18:51 19.87321 32.11389 38948 ft 488 kts 174°
2026-04-30 18:51 19.80680 32.12861 38944 ft 487 kts 173°
2026-04-30 18:52 19.74040 32.14334 38944 ft 487 kts 173°
2026-04-30 18:52 19.67396 32.15805 38944 ft 487 kts 173°
2026-04-30 18:53 19.60807 32.17263 38942 ft 487 kts 173°
2026-04-30 18:53 19.54173 32.18730 38935 ft 487 kts 173°
2026-04-30 18:54 19.47541 32.20196 38935 ft 486 kts 173°
2026-04-30 18:54 19.40914 32.21659 38936 ft 486 kts 173°
2026-04-30 18:55 19.34329 32.23112 38939 ft 486 kts 173°
2026-04-30 18:55 19.24400 32.25299 38929 ft 486 kts 173°
2026-04-30 18:56 19.14478 32.27484 38933 ft 485 kts 173°
2026-04-30 18:57 19.04575 32.29660 38933 ft 485 kts 173°
2026-04-30 18:57 18.97969 32.31111 38933 ft 485 kts 173°
2026-04-30 18:58 18.88070 32.33282 38934 ft 484 kts 173°
2026-04-30 18:59 18.78167 32.35452 38932 ft 484 kts 172°
2026-04-30 19:00 18.65019 32.38329 38925 ft 484 kts 172°
2026-04-30 19:01 18.51826 32.41210 38936 ft 484 kts 172°
2026-04-30 19:02 18.41932 32.43369 38939 ft 484 kts 172°
2026-04-30 19:03 18.28783 32.46234 38936 ft 484 kts 172°
2026-04-30 19:04 18.15593 32.49103 38937 ft 484 kts 172°
2026-04-30 19:05 18.02405 32.51966 38936 ft 483 kts 172°
2026-04-30 19:06 17.89279 32.54813 38936 ft 483 kts 172°
2026-04-30 19:06 17.79402 32.56952 38933 ft 483 kts 172°
2026-04-30 19:07 17.69528 32.59088 38933 ft 483 kts 172°
2026-04-30 19:08 17.56358 32.61933 38925 ft 483 kts 172°
2026-04-30 19:09 17.46490 32.64062 38930 ft 481 kts 172°
2026-04-30 19:09 17.39929 32.65476 38928 ft 481 kts 171°
2026-04-30 19:10 17.26834 32.68296 38928 ft 481 kts 171°
2026-04-30 19:11 17.17046 32.70398 38929 ft 481 kts 171°
2026-04-30 19:12 17.10480 32.71800 38932 ft 480 kts 171°
2026-04-30 19:12 17.05045 32.72961 38925 ft 479 kts 171°
2026-04-30 19:13 16.91962 32.75753 38922 ft 479 kts 171°
2026-04-30 19:14 16.85421 32.77149 38929 ft 479 kts 171°
2026-04-30 19:14 16.78934 32.78530 38917 ft 479 kts 171°
2026-04-30 19:15 16.72390 32.79924 38913 ft 479 kts 171°
2026-04-30 19:15 16.62586 32.82011 38915 ft 479 kts 171°
2026-04-30 19:16 16.56049 32.83401 38915 ft 479 kts 171°
2026-04-30 19:17 16.46211 32.85263 38908 ft 478 kts 174°
2026-04-30 19:17 16.36373 32.86683 38920 ft 478 kts 174°
2026-04-30 19:18 16.26497 32.88186 38914 ft 478 kts 174°
2026-04-30 19:19 16.19920 32.89215 38909 ft 478 kts 173°
2026-04-30 19:19 16.10039 32.90762 38914 ft 479 kts 173°
2026-04-30 19:20 16.03445 32.91792 38911 ft 479 kts 173°
2026-04-30 19:21 15.93556 32.93333 38914 ft 479 kts 173°
2026-04-30 19:22 15.80381 32.95384 38917 ft 478 kts 173°
2026-04-30 19:23 15.60675 32.98447 38901 ft 478 kts 173°
2026-04-30 19:24 15.50852 32.99972 38909 ft 478 kts 173°
2026-04-30 19:25 15.34419 33.02519 38905 ft 477 kts 173°
2026-04-30 19:26 15.21259 33.04556 38904 ft 477 kts 173°
2026-04-30 19:27 15.11397 33.06081 38904 ft 477 kts 173°
2026-04-30 19:28 15.01528 33.07606 38900 ft 477 kts 173°
2026-04-30 19:29 14.88425 33.09627 38896 ft 478 kts 173°
2026-04-30 19:30 14.75279 33.11654 38897 ft 478 kts 173°
2026-04-30 19:31 14.62127 33.13678 38895 ft 478 kts 172°
2026-04-30 19:31 14.52240 33.15199 38893 ft 478 kts 172°
2026-04-30 19:32 14.45663 33.16212 38902 ft 478 kts 172°
2026-04-30 19:32 14.39067 33.17225 38895 ft 479 kts 172°
2026-04-30 19:33 14.32507 33.18233 38896 ft 479 kts 172°
2026-04-30 19:33 14.25911 33.19246 38894 ft 479 kts 172°
2026-04-30 19:34 14.19313 33.20259 38895 ft 479 kts 172°
2026-04-30 19:35 14.09415 33.21777 38890 ft 479 kts 172°
2026-04-30 19:35 14.02821 33.22788 38893 ft 479 kts 172°
2026-04-30 19:36 13.96227 33.23798 38893 ft 478 kts 172°
2026-04-30 19:36 13.86380 33.25305 38893 ft 479 kts 172°
2026-04-30 19:37 13.79781 33.26315 38896 ft 479 kts 172°
2026-04-30 19:37 13.73186 33.27323 38888 ft 479 kts 172°
2026-04-30 19:38 13.66586 33.28331 38892 ft 479 kts 172°
2026-04-30 19:38 13.60041 33.29331 38894 ft 479 kts 172°
2026-04-30 19:39 13.53449 33.30337 38891 ft 479 kts 172°
2026-04-30 19:39 13.46856 33.31342 38898 ft 479 kts 172°
2026-04-30 19:40 13.40265 33.32347 38894 ft 479 kts 172°
2026-04-30 19:40 13.33674 33.33351 38885 ft 479 kts 172°
2026-04-30 19:41 13.27086 33.34354 38883 ft 479 kts 172°
2026-04-30 19:41 13.20485 33.35359 38889 ft 479 kts 172°
2026-04-30 19:42 13.13895 33.36361 38882 ft 479 kts 172°
2026-04-30 19:42 13.07309 33.37362 38883 ft 478 kts 172°
2026-04-30 19:43 13.00725 33.38363 38887 ft 478 kts 172°
2026-04-30 19:44 12.90887 33.39857 38888 ft 478 kts 172°
2026-04-30 19:44 12.84300 33.40856 38881 ft 478 kts 172°
2026-04-30 19:45 12.77710 33.41855 38885 ft 478 kts 172°
2026-04-30 19:45 12.71127 33.42853 38884 ft 478 kts 172°
2026-04-30 19:46 12.64533 33.43852 38884 ft 478 kts 172°
2026-04-30 19:46 12.57946 33.44850 38880 ft 478 kts 172°
2026-04-30 19:47 12.51406 33.45839 38877 ft 479 kts 172°
2026-04-30 19:47 12.44800 33.46839 38879 ft 479 kts 172°
2026-04-30 19:48 12.38211 33.47835 38880 ft 479 kts 172°
2026-04-30 19:48 12.31612 33.48832 38883 ft 479 kts 172°
2026-04-30 19:49 12.25017 33.49828 38879 ft 479 kts 172°
2026-04-30 19:49 12.15114 33.51323 38879 ft 479 kts 172°
2026-04-30 19:50 12.08528 33.52316 38882 ft 479 kts 172°
2026-04-30 19:50 12.01928 33.53311 38880 ft 479 kts 172°
2026-04-30 19:51 11.95338 33.54304 38880 ft 479 kts 172°
2026-04-30 19:51 11.88779 33.55292 38883 ft 479 kts 172°
2026-04-30 19:52 11.82172 33.56287 38883 ft 480 kts 172°
2026-04-30 19:52 11.75563 33.57281 38885 ft 480 kts 172°
2026-04-30 19:53 11.68943 33.58277 38882 ft 480 kts 172°
2026-04-30 19:53 11.62367 33.59266 38886 ft 480 kts 172°
2026-04-30 19:54 11.55752 33.60260 38886 ft 481 kts 172°
2026-04-30 19:54 11.49111 33.61257 38886 ft 482 kts 172°
2026-04-30 19:55 11.42480 33.62252 38884 ft 482 kts 172°
2026-04-30 19:55 11.35836 33.63249 38886 ft 482 kts 172°
2026-04-30 19:56 11.29244 33.64238 38885 ft 482 kts 172°
2026-04-30 19:56 11.22602 33.65234 38883 ft 483 kts 172°
2026-04-30 19:57 11.15953 33.66230 38886 ft 483 kts 172°
2026-04-30 19:57 11.09301 33.67226 38886 ft 483 kts 172°
2026-04-30 19:58 11.02684 33.68217 38889 ft 483 kts 172°
2026-04-30 19:58 10.96028 33.69212 38886 ft 483 kts 172°
2026-04-30 19:59 10.89376 33.70208 38882 ft 483 kts 172°
2026-04-30 20:00 10.79387 33.71700 38879 ft 483 kts 172°
2026-04-30 20:00 10.72732 33.72692 38883 ft 483 kts 172°
2026-04-30 20:01 10.62747 33.74181 38882 ft 484 kts 172°
2026-04-30 20:01 10.57194 33.75008 38880 ft 485 kts 172°
2026-04-30 20:02 10.46085 33.76666 38883 ft 485 kts 172°
2026-04-30 20:03 10.37142 33.77999 38880 ft 485 kts 172°
2026-04-30 20:03 10.30498 33.78986 38878 ft 486 kts 172°
2026-04-30 20:04 10.23799 33.79982 38880 ft 487 kts 172°
2026-04-30 20:05 10.13738 33.81479 38876 ft 487 kts 172°
2026-04-30 20:05 10.03711 33.82969 38880 ft 487 kts 172°
2026-04-30 20:06 9.96998 33.83967 38882 ft 488 kts 172°
2026-04-30 20:06 9.90273 33.84966 38884 ft 488 kts 172°
2026-04-30 20:07 9.83548 33.85964 38880 ft 488 kts 172°
2026-04-30 20:08 9.73465 33.87460 38887 ft 488 kts 172°
2026-04-30 20:08 9.66734 33.88459 38891 ft 489 kts 172°
2026-04-30 20:09 9.60043 33.89451 38891 ft 489 kts 172°
2026-04-30 20:09 9.49936 33.90948 38907 ft 489 kts 172°
2026-04-30 20:10 9.39826 33.92446 38902 ft 489 kts 172°
2026-04-30 20:11 9.29800 33.94458 39431 ft 489 kts 166°
2026-04-30 20:11 9.26520 33.95339 39782 ft 487 kts 165°
2026-04-30 20:11 9.23245 33.96241 39894 ft 486 kts 165°
2026-04-30 20:12 9.13553 33.98949 39905 ft 483 kts 165°
2026-04-30 20:13 9.07067 34.00755 39916 ft 483 kts 165°
2026-04-30 20:13 9.00577 34.02554 39905 ft 483 kts 165°
2026-04-30 20:14 8.94085 34.04352 39909 ft 483 kts 165°
2026-04-30 20:14 8.87626 34.06140 39903 ft 483 kts 165°
2026-04-30 20:15 8.81142 34.07934 39900 ft 483 kts 165°
2026-04-30 20:15 8.74650 34.09730 39896 ft 483 kts 165°
2026-04-30 20:16 8.68161 34.11525 39907 ft 483 kts 165°
2026-04-30 20:16 8.61675 34.13318 39898 ft 483 kts 165°
2026-04-30 20:17 8.55186 34.15112 39895 ft 483 kts 165°
2026-04-30 20:17 8.48698 34.16905 39893 ft 483 kts 165°
2026-04-30 20:18 8.42203 34.18698 39893 ft 483 kts 165°
2026-04-30 20:18 8.35769 34.20475 39886 ft 483 kts 165°
2026-04-30 20:19 8.29280 34.22266 39892 ft 483 kts 165°
2026-04-30 20:19 8.22795 34.24055 39888 ft 483 kts 165°
2026-04-30 20:20 8.16308 34.25844 39887 ft 483 kts 165°
2026-04-30 20:20 8.09822 34.27632 39886 ft 483 kts 165°
2026-04-30 20:21 8.03329 34.29417 39887 ft 484 kts 165°
2026-04-30 20:21 7.96828 34.31194 39887 ft 484 kts 165°
2026-04-30 20:22 7.90331 34.32968 39893 ft 484 kts 165°
2026-04-30 20:22 7.83833 34.34742 39892 ft 484 kts 165°
2026-04-30 20:23 7.77342 34.36515 39891 ft 482 kts 165°
2026-04-30 20:23 7.70866 34.38283 39896 ft 482 kts 165°
2026-04-30 20:24 7.64395 34.40049 39899 ft 481 kts 165°
2026-04-30 20:24 7.57931 34.41813 39901 ft 482 kts 165°
2026-04-30 20:25 7.48258 34.44451 39907 ft 482 kts 164°
2026-04-30 20:26 7.38571 34.47092 39913 ft 480 kts 164°
2026-04-30 20:26 7.28915 34.49723 39912 ft 478 kts 164°
2026-04-30 20:27 7.16093 34.53216 39919 ft 477 kts 165°
2026-04-30 20:28 7.03276 34.56705 39921 ft 477 kts 165°
2026-04-30 20:30 6.87265 34.61060 39930 ft 477 kts 164°
2026-04-30 20:31 6.68010 34.66294 39942 ft 479 kts 164°
2026-04-30 20:32 6.51862 34.70562 39943 ft 481 kts 164°
2026-04-30 20:33 6.42133 34.73120 39950 ft 482 kts 164°
2026-04-30 20:34 6.32401 34.75685 39966 ft 483 kts 164°
2026-04-30 20:35 6.22647 34.78251 39975 ft 483 kts 164°
2026-04-30 20:35 6.12896 34.80817 39975 ft 483 kts 164°
2026-04-30 20:36 6.06399 34.82526 39978 ft 483 kts 164°
2026-04-30 20:37 5.96648 34.85091 39991 ft 483 kts 164°
2026-04-30 20:37 5.90145 34.86800 39993 ft 483 kts 164°
2026-04-30 20:38 5.83643 34.88509 39995 ft 483 kts 164°
2026-04-30 20:38 5.77182 34.90207 39995 ft 483 kts 164°
2026-04-30 20:39 5.67421 34.92771 39985 ft 483 kts 164°
2026-04-30 20:40 5.57677 34.95330 39982 ft 482 kts 164°
2026-04-30 20:40 5.51184 34.97034 39987 ft 482 kts 164°
2026-04-30 20:41 5.41456 34.99588 39975 ft 482 kts 164°
2026-04-30 20:41 5.34955 35.01296 39964 ft 483 kts 164°
2026-04-30 20:42 5.28491 35.02996 39965 ft 483 kts 164°
2026-04-30 20:43 5.18752 35.05657 39960 ft 484 kts 163°
2026-04-30 20:43 5.12250 35.07441 39957 ft 484 kts 163°
2026-04-30 20:44 5.02497 35.10104 39952 ft 484 kts 164°
2026-04-30 20:45 4.89500 35.13645 39949 ft 484 kts 164°
2026-04-30 20:45 4.83048 35.15402 39958 ft 484 kts 164°
2026-04-30 20:46 4.70054 35.18941 39958 ft 484 kts 164°
2026-04-30 20:47 4.60310 35.21593 39961 ft 483 kts 163°
2026-04-30 20:48 4.50572 35.24243 39959 ft 483 kts 163°
2026-04-30 20:48 4.44085 35.26009 39962 ft 483 kts 164°
2026-04-30 20:49 4.38698 35.27475 39961 ft 482 kts 164°
2026-04-30 20:50 4.28979 35.30118 39961 ft 483 kts 163°
2026-04-30 20:50 4.22475 35.31887 39964 ft 483 kts 163°
2026-04-30 20:51 4.15990 35.33650 39963 ft 483 kts 163°
2026-04-30 20:51 4.06295 35.36286 39963 ft 483 kts 163°
2026-04-30 20:52 3.99812 35.38048 39965 ft 483 kts 163°
2026-04-30 20:53 3.90068 35.40616 39968 ft 482 kts 164°
2026-04-30 20:53 3.83569 35.42293 39969 ft 482 kts 164°
2026-04-30 20:54 3.73831 35.44825 39965 ft 482 kts 164°
2026-04-30 20:55 3.64116 35.47360 39970 ft 479 kts 165°
2026-04-30 20:55 3.57704 35.49033 39969 ft 479 kts 165°
2026-04-30 20:56 3.48031 35.51555 39968 ft 478 kts 165°
2026-04-30 20:57 3.38364 35.54075 39969 ft 479 kts 165°
2026-04-30 20:57 3.31910 35.55758 39963 ft 480 kts 165°
2026-04-30 20:58 3.22214 35.58285 39971 ft 480 kts 165°
2026-04-30 20:58 3.15744 35.59970 39973 ft 480 kts 165°
2026-04-30 20:59 3.05935 35.62024 39974 ft 481 kts 171°
2026-04-30 21:00 2.92751 35.64158 39978 ft 481 kts 171°
2026-04-30 21:01 2.82840 35.65749 39970 ft 481 kts 171°
2026-04-30 21:02 2.72913 35.67341 39967 ft 481 kts 171°
2026-04-30 21:02 2.66297 35.68401 39974 ft 481 kts 171°
2026-04-30 21:03 2.59690 35.69461 39983 ft 481 kts 171°
2026-04-30 21:03 2.53122 35.70513 39979 ft 481 kts 171°
2026-04-30 21:04 2.46507 35.71574 39984 ft 481 kts 171°
2026-04-30 21:04 2.36601 35.73161 39985 ft 480 kts 171°
2026-04-30 21:05 2.29998 35.74219 39993 ft 480 kts 171°
2026-04-30 21:05 2.23393 35.75277 39994 ft 481 kts 171°
2026-04-30 21:06 2.16776 35.76337 39990 ft 481 kts 171°
2026-04-30 21:06 2.10158 35.77398 39996 ft 482 kts 171°
2026-04-30 21:07 2.03513 35.78462 39997 ft 483 kts 171°
2026-04-30 21:07 1.96908 35.79520 40005 ft 484 kts 171°
2026-04-30 21:08 1.90261 35.80584 40007 ft 483 kts 171°
2026-04-30 21:08 1.83615 35.81649 40007 ft 484 kts 171°
2026-04-30 21:09 1.76954 35.82716 39775 ft 484 kts 171°
2026-04-30 21:09 1.73619 35.83249 39532 ft 487 kts 171°
2026-04-30 21:09 1.70264 35.83786 39307 ft 489 kts 172°
2026-04-30 21:10 1.66901 35.84325 39076 ft 490 kts 172°
2026-04-30 21:10 1.63530 35.84864 38847 ft 491 kts 172°
2026-04-30 21:10 1.60150 35.85412 38614 ft 492 kts 172°
2026-04-30 21:10 1.56774 35.86004 38335 ft 493 kts 171°
2026-04-30 21:11 1.53391 35.86608 38062 ft 494 kts 170°
2026-04-30 21:11 1.50042 35.87204 37803 ft 495 kts 171°
2026-04-30 21:11 1.46640 35.87808 37550 ft 496 kts 171°
2026-04-30 21:11 1.43228 35.88412 37292 ft 497 kts 171°
2026-04-30 21:12 1.39823 35.89012 37035 ft 498 kts 171°
2026-04-30 21:12 1.36407 35.89615 36781 ft 499 kts 171°
2026-04-30 21:12 1.32982 35.90218 36546 ft 499 kts 171°
2026-04-30 21:12 1.29562 35.90820 36294 ft 500 kts 171°
2026-04-30 21:13 1.26132 35.91424 36046 ft 501 kts 171°
2026-04-30 21:13 1.22698 35.92028 35821 ft 502 kts 170°
2026-04-30 21:13 1.19253 35.92634 35581 ft 503 kts 170°
2026-04-30 21:13 1.15806 35.93241 35350 ft 504 kts 170°
2026-04-30 21:14 1.12346 35.93851 35110 ft 505 kts 171°
2026-04-30 21:14 1.08883 35.94461 34890 ft 506 kts 171°
2026-04-30 21:14 1.05417 35.95071 34660 ft 506 kts 170°
2026-04-30 21:14 1.01946 35.95682 34416 ft 507 kts 170°
2026-04-30 21:15 0.98472 35.96293 34202 ft 507 kts 170°
2026-04-30 21:15 0.94989 35.96906 33968 ft 508 kts 170°
2026-04-30 21:15 0.91502 35.97520 33702 ft 509 kts 171°
2026-04-30 21:15 0.88018 35.98133 33436 ft 509 kts 171°
2026-04-30 21:16 0.84524 35.98748 33221 ft 509 kts 171°
2026-04-30 21:16 0.81032 35.99363 32964 ft 510 kts 170°
2026-04-30 21:16 0.77586 35.99969 32709 ft 510 kts 170°
2026-04-30 21:16 0.74092 36.00584 32476 ft 511 kts 170°
2026-04-30 21:17 0.70583 36.01201 32232 ft 511 kts 170°
2026-04-30 21:17 0.67079 36.01818 31986 ft 512 kts 170°
2026-04-30 21:17 0.63562 36.02437 31746 ft 512 kts 170°
2026-04-30 21:17 0.60052 36.03055 31519 ft 513 kts 170°
2026-04-30 21:18 0.56537 36.03673 31285 ft 514 kts 170°
2026-04-30 21:18 0.53012 36.04293 31051 ft 514 kts 170°
2026-04-30 21:18 0.49488 36.04914 30814 ft 515 kts 170°
2026-04-30 21:18 0.45958 36.05535 30621 ft 515 kts 170°
2026-04-30 21:19 0.42429 36.06156 30384 ft 515 kts 170°
2026-04-30 21:19 0.38896 36.06778 30146 ft 516 kts 170°
2026-04-30 21:19 0.35359 36.07400 29906 ft 516 kts 170°
2026-04-30 21:19 0.31823 36.08023 29645 ft 514 kts 170°
2026-04-30 21:20 0.28304 36.08642 29379 ft 512 kts 170°
2026-04-30 21:20 0.24802 36.09258 29114 ft 510 kts 170°
2026-04-30 21:20 0.21357 36.09864 28881 ft 508 kts 170°
2026-04-30 21:20 0.17881 36.10476 28624 ft 506 kts 170°
2026-04-30 21:21 0.14418 36.11085 28366 ft 504 kts 170°
2026-04-30 21:21 0.10966 36.11693 28141 ft 503 kts 170°
2026-04-30 21:21 0.04090 36.12903 27649 ft 499 kts 170°
2026-04-30 21:22 0.00677 36.13503 27405 ft 497 kts 170°
2026-04-30 21:22 -0.09523 36.15298 26700 ft 495 kts 170°
2026-04-30 21:23 -0.12913 36.15894 26468 ft 494 kts 170°
2026-04-30 21:23 -0.16255 36.16482 26237 ft 493 kts 170°
2026-04-30 21:23 -0.22982 36.17666 25770 ft 489 kts 170°
2026-04-30 21:24 -0.26330 36.18255 25560 ft 488 kts 170°
2026-04-30 21:24 -0.29670 36.18843 25327 ft 487 kts 170°
2026-04-30 21:24 -0.33003 36.19429 25102 ft 485 kts 170°
2026-04-30 21:24 -0.36327 36.20014 24883 ft 484 kts 170°
2026-04-30 21:25 -0.42941 36.21178 24459 ft 481 kts 170°
2026-04-30 21:25 -0.46232 36.21758 24242 ft 480 kts 170°
2026-04-30 21:25 -0.49521 36.22336 24039 ft 478 kts 170°
2026-04-30 21:26 -0.56058 36.23487 23560 ft 475 kts 170°
2026-04-30 21:26 -0.59270 36.24052 23314 ft 474 kts 170°
2026-04-30 21:27 -0.65740 36.25191 22822 ft 470 kts 170°
2026-04-30 21:27 -0.68953 36.25757 22565 ft 467 kts 170°
2026-04-30 21:27 -0.72149 36.26319 22316 ft 464 kts 170°
2026-04-30 21:28 -0.78491 36.27435 21832 ft 461 kts 170°
2026-04-30 21:28 -0.81641 36.27989 21590 ft 459 kts 170°
2026-04-30 21:28 -0.87907 36.29092 21113 ft 455 kts 170°
2026-04-30 21:29 -0.91015 36.29639 20875 ft 453 kts 170°
2026-04-30 21:29 -1.00283 36.31270 20162 ft 448 kts 170°
2026-04-30 21:30 -1.06395 36.32346 19721 ft 444 kts 170°
2026-04-30 21:31 -1.15453 36.33941 19036 ft 440 kts 170°
2026-04-30 21:31 -1.21435 36.34993 18204 ft 430 kts 170°
2026-04-30 21:32 -1.27270 36.36021 16772 ft 421 kts 170°
2026-04-30 21:32 -1.30136 36.36525 16088 ft 416 kts 170°
2026-04-30 21:32 -1.32980 36.37024 15373 ft 412 kts 170°
2026-04-30 21:32 -1.35830 36.37335 14433 ft 413 kts 171°
2026-04-30 21:33 -1.38477 36.38269 13777 ft 406 kts 150°
2026-04-30 21:33 -1.42040 36.42341 12567 ft 389 kts 110°
2026-04-30 21:33 -1.42534 36.44964 11901 ft 383 kts 90°
2026-04-30 21:34 -1.42373 36.47596 11293 ft 377 kts 88°
2026-04-30 21:34 -1.42827 36.52334 10978 ft 307 kts 102°
2026-04-30 21:34 -1.43325 36.54306 10890 ft 279 kts 106°
2026-04-30 21:35 -1.43905 36.56127 10798 ft 274 kts 109°
2026-04-30 21:35 -1.44561 36.57900 10700 ft 271 kts 111°
2026-04-30 21:35 -1.45268 36.59647 10575 ft 270 kts 112°
2026-04-30 21:35 -1.46002 36.61370 10477 ft 266 kts 113°
2026-04-30 21:36 -1.46725 36.63021 10381 ft 252 kts 113°
2026-04-30 21:36 -1.47415 36.64574 10231 ft 238 kts 114°
2026-04-30 21:37 -1.48618 36.68556 9283 ft 223 kts 84°
2026-04-30 21:37 -1.47980 36.70490 8810 ft 222 kts 64°
2026-04-30 21:37 -1.47176 36.71797 8478 ft 221 kts 57°
2026-04-30 21:37 -1.46282 36.73040 8277 ft 219 kts 55°
2026-04-30 21:38 -1.45377 36.74273 8233 ft 221 kts 55°
2026-04-30 21:38 -1.44471 36.75516 8250 ft 220 kts 56°
2026-04-30 21:38 -1.43577 36.76753 8253 ft 218 kts 56°
2026-04-30 21:38 -1.42690 36.77983 8254 ft 217 kts 56°
2026-04-30 21:39 -1.41842 36.79157 8249 ft 200 kts 56°
2026-04-30 21:39 -1.41310 36.79891 8143 ft 193 kts 56°
2026-04-30 21:39 -1.40530 36.80962 7947 ft 189 kts 56°
2026-04-30 21:39 -1.39761 36.82018 7688 ft 187 kts 56°
2026-04-30 21:40 -1.38751 36.83407 7368 ft 185 kts 56°
2026-04-30 21:40 -1.38019 36.84410 7149 ft 171 kts 57°
2026-04-30 21:40 -1.37558 36.85044 7005 ft 163 kts 57°
2026-04-30 21:40 -1.36919 36.85924 6819 ft 152 kts 56°
2026-04-30 21:41 -1.36302 36.86772 6619 ft 151 kts 57°
2026-04-30 21:41 -1.35684 36.87624 6406 ft 152 kts 54°
2026-04-30 21:41 -1.35057 36.88470 6183 ft 150 kts 54°
2026-04-30 21:41 -1.34434 36.89282 6013 ft 150 kts 55°
2026-04-30 21:42 -1.33825 36.90130 5733 ft 148 kts 56°
2026-04-30 21:42 -1.33227 36.90962 5529 ft 147 kts 54°
2026-04-30 21:42 -1.32632 36.91790 5351 ft 149 kts 54°
2026-04-30 21:42 -1.32097 36.92540 5319 ft 122 kts 55°
2026-04-30 21:43 -1.31764 36.93000 5308 ft 45 kts 53°
2026-04-30 21:43 -1.31615 36.93204 5304 ft 23 kts 55°
2026-04-30 21:43 -1.31591 36.93342 5310 ft 19 kts 112°
2026-04-30 21:43 -1.31668 36.93405 5307 ft 14 kts 146°
2026-04-30 21:44 -1.31754 36.93457 5310 ft 14 kts 153°
2026-04-30 21:44 -1.31834 36.93438 5308 ft 12 kts 226°
2026-04-30 21:44 -1.31889 36.93363 5310 ft 14 kts 233°
2026-04-30 21:44 -1.31951 36.93281 5312 ft 15 kts 231°
2026-04-30 21:45 -1.32023 36.93195 5313 ft 17 kts 230°
2026-04-30 21:45 -1.32096 36.93098 5313 ft 18 kts 234°
2026-04-30 21:45 -1.32171 36.92998 5319 ft 18 kts 234°
2026-04-30 21:45 -1.32250 36.92893 5320 ft 20 kts 231°
2026-04-30 21:46 -1.32324 36.92792 5336 ft 18 kts 233°
2026-04-30 21:46 -1.32427 36.92765 5333 ft 17 kts 158°
2026-04-30 21:46 -1.32526 36.92832 5335 ft 18 kts 144°
2026-04-30 21:46 -1.32627 36.92903 5334 ft 18 kts 146°
2026-04-30 21:47 -1.32731 36.92969 5335 ft 9 kts 180°
2026-04-30 21:47 -1.32788 36.92930 5335 ft 11 kts 226°
2026-04-30 21:47 -1.32840 36.92864 5336 ft 14 kts 234°
2026-04-30 21:47 -1.32890 36.92777 5331 ft 14 kts 266°
2026-04-30 21:48 -1.32857 36.92711 5335 ft 8 kts 303°
2026-04-30 21:48 -1.32835 36.92655 5335 ft 8 kts 267°
2026-04-30 21:48 -1.32856 36.92627 5334 ft 6 kts 221°
2026-04-30 21:48 -1.32878 36.92612 5334 ft 0 kts 214°